Tracking 19245 objects as of 14-Aug-2018
HD Live streaming from Space Station
objects crossing your sky now

SBS 2

Track SBS 2 now!
SBS 2 is classified as:


NORAD ID: 12855
Int'l Code: 1981-096A
Perigee: 35,809.7 km
Apogee: 35,846.2 km
Inclination: 14.3 °
Period: 1,437.8 minutes
Semi major axis: 42198 km
RCS: 7.6855 m2 (large)
Launch date: September 24, 1981
Source: United States (US)
Launch site: AIR FORCE EASTERN TEST RANGE (AFETR)
aabbcc
Your satellite tracking list
Your tracking list is empty




NASA's NSSDC Master Catalog

Two Line Element Set (TLE):
1 12855U 81096A   18226.62573714  .00000018  00000-0  00000+0 0  9997
2 12855  14.3227 345.7137 0004335 179.9383  34.8325  1.00149878 89883
Source of the keplerian elements: AFSPC